Regional Weather Roundup
Issued by NWS

Home | Current Version | Previous Version | Text Only | Print | Product List | Glossary On
Versions: 1 2 3 4 5 6 7 8 9 10 11 12 13 14 15 16 17 18 19 20 21 22 23 24 25 26 27 28 29 30 31 32 33 34 35 36 37 38 39 40 41 42 43 44 45 46 47 48 49 50
000
ASUS43 KTOP 050759
RWRKS

WEATHER ROUNDUP FOR KANSAS
NATIONAL WEATHER SERVICE GOODLAND KS
300 AM CDT WED AUG 05 2015

NOTE:  "FAIR" INDICATES FEW OR NO CLOUDS BELOW 12,000 FEET WITH NO
SIGNIFICANT WEATHER AND/OR OBSTRUCTIONS TO VISIBILITY.

KSZ001>006-013>018-027>032-041>047-050900-
NORTHWEST KANSAS

CITY           SKY/WX    TMP DP  RH WIND       PRES   REMARKS
GOODLAND       CLEAR     59  58  96 CALM      30.05F
HAYS           MOCLDY    72  64  78 CALM      29.94R
HILL CITY      CLOUDY    67  64  90 N6        29.98S
RUSSELL        MOCLDY    73  70  90 CALM      29.93R
$$

KSZ061>065-074>080-084>089-050900-
SOUTHWEST KANSAS

CITY           SKY/WX    TMP DP  RH WIND       PRES   REMARKS
DODGE CITY     CLEAR     70  68  93 S9        29.95F FOG
ELKHART          N/A     68  63  84 SE5         N/A
GARDEN CITY    CLEAR     71  67  87 SE7       29.97F
GREAT BEND     CLEAR     72  66  83 S12       29.91F
LIBERAL        CLEAR     72  64  78 SW5         N/A
$$

KSZ066>073-081>083-090>101-050900-
SOUTHEAST KANSAS

CITY           SKY/WX    TMP DP  RH WIND       PRES   REMARKS
CHANUTE        CLOUDY    72  70  93 E6        29.95F FOG
COFFEYVILLE    CLEAR     71  70  96 NE5       29.93F
HUTCHINSON     CLOUDY    74  70  87 E7        29.92F
NEWTON         CLOUDY    72  64  78 SE14      29.94F
PARSONS        PTCLDY    73  71  93 VRB3      29.95F
WICHITA INTL   MOCLDY    73  69  87 SE8       29.92F
WICHITA JABRA  MOCLDY    72  70  93 SE8       29.93F
$$

KSZ007>012-019>026-033>040-048>060-102>105-050900-
NORTHEAST KANSAS

CITY           SKY/WX    TMP DP  RH WIND       PRES   REMARKS
CONCORDIA      LGT RAIN  67  66  97 NE6       29.95F
EMPORIA        CLOUDY    70  67  90 E7        29.96S
LAWRENCE       PTCLDY    71  69  93 E3        29.98R FOG
MANHATTAN      CLOUDY    71  68  90 E8        29.95F
OLATHE IND     CLOUDY    71  70  96 SE6       29.99S FOG
OLATHE EXE     CLOUDY    70  69  97 SE6       29.98S
SALINA         MOCLDY    74  69  85 SE16      29.88F THUNDER
TOPEKA BILLARD MOCLDY    70  68  93 E3        29.98R
TOPEKA FORBES  CLOUDY    70  67  90 SE5       29.98R
$$



USA.gov is the U.S. government's official web portal to all federal, state and local government web resources and services.